Location: Banska Bystrica
(0.0000°N, 19.1500°E)
Time: 23:03:45
(UTC+01:00)

MOS 1 - Pass Details

Date: 19 February 2019
Orbit: 879 x 891 km, 99.2° (Epoch: 18 March)

Event Time Altitude Azimuth Distance (km) Brightness Sun altitude
Rises 18:52:42 0° 157° (SSE) 3,483 7.3 -13.6°
Reaches altitude 10° 18:55:10 10° 152° (SSE) 2,540 6.5 -14.2°
Maximum altitude 19:00:38 51° 77° (ENE) 1,091 4.4 -15.5°
Drops below altitude 10° 19:06:04 10° 2° (N) 2,525 6.5 -16.9°
Sets 19:08:30 0° 357° (N) 3,460 7.3 -17.5°
